<?xml version="1.0"?>
<gpx xmlns="http://www.topografix.com/GPX/1/1" xmlns:xsi="http://www.w3.org/2001/XMLSchema-instance" version="1.1" creator="GPX RubyGem 1.0.0 -- http://dougfales.github.io/gpx/" xsi:schemaLocation="http://www.topografix.com/GPX/1/1 http://www.topografix.com/GPX/1/1/gpx.xsd">
  <metadata>
    <name/>
    <time>2026-05-09T00:45:18+00:00</time>
    <bound minlat="90.0" minlon="180.0" maxlat="-90.0" maxlon="-180.0"/>
  </metadata>
  <trk>
    <name/>
    <trkseg>
      <trkpt lat="47.629772" lon="7.201393">
        <time>1970-01-01T00:00:00+00:00</time>
        <ele>322.0</ele>
      </trkpt>
      <trkpt lat="47.629767" lon="7.20122">
        <time>1970-01-01T00:00:00+00:00</time>
        <ele>322.0</ele>
      </trkpt>
      <trkpt lat="47.629682" lon="7.201104">
        <time>1970-01-01T00:00:00+00:00</time>
        <ele>323.0</ele>
      </trkpt>
      <trkpt lat="47.629471" lon="7.201102">
        <time>1970-01-01T00:00:00+00:00</time>
        <ele>323.0</ele>
      </trkpt>
      <trkpt lat="47.62933" lon="7.207409">
        <time>1970-01-01T00:00:00+00:00</time>
        <ele>317.0</ele>
      </trkpt>
      <trkpt lat="47.630188" lon="7.207283">
        <time>1970-01-01T00:00:00+00:00</time>
        <ele>319.0</ele>
      </trkpt>
      <trkpt lat="47.63101" lon="7.207217">
        <time>1970-01-01T00:00:00+00:00</time>
        <ele>325.0</ele>
      </trkpt>
      <trkpt lat="47.631488" lon="7.20709">
        <time>1970-01-01T00:00:00+00:00</time>
        <ele>328.0</ele>
      </trkpt>
      <trkpt lat="47.631877" lon="7.20691">
        <time>1970-01-01T00:00:00+00:00</time>
        <ele>327.0</ele>
      </trkpt>
      <trkpt lat="47.632086" lon="7.206763">
        <time>1970-01-01T00:00:00+00:00</time>
        <ele>326.0</ele>
      </trkpt>
      <trkpt lat="47.632768" lon="7.206197">
        <time>1970-01-01T00:00:00+00:00</time>
        <ele>320.0</ele>
      </trkpt>
      <trkpt lat="47.633444" lon="7.205658">
        <time>1970-01-01T00:00:00+00:00</time>
        <ele>322.0</ele>
      </trkpt>
      <trkpt lat="47.634053" lon="7.205331">
        <time>1970-01-01T00:00:00+00:00</time>
        <ele>328.0</ele>
      </trkpt>
      <trkpt lat="47.634585" lon="7.205035">
        <time>1970-01-01T00:00:00+00:00</time>
        <ele>325.0</ele>
      </trkpt>
      <trkpt lat="47.634888" lon="7.204793">
        <time>1970-01-01T00:00:00+00:00</time>
        <ele>322.0</ele>
      </trkpt>
      <trkpt lat="47.635146" lon="7.204639">
        <time>1970-01-01T00:00:00+00:00</time>
        <ele>319.0</ele>
      </trkpt>
      <trkpt lat="47.635426" lon="7.204592">
        <time>1970-01-01T00:00:00+00:00</time>
        <ele>316.0</ele>
      </trkpt>
      <trkpt lat="47.635807" lon="7.204608">
        <time>1970-01-01T00:00:00+00:00</time>
        <ele>313.0</ele>
      </trkpt>
      <trkpt lat="47.636004" lon="7.204536">
        <time>1970-01-01T00:00:00+00:00</time>
        <ele>310.0</ele>
      </trkpt>
      <trkpt lat="47.636076" lon="7.204428">
        <time>1970-01-01T00:00:00+00:00</time>
        <ele>309.0</ele>
      </trkpt>
      <trkpt lat="47.63611" lon="7.204257">
        <time>1970-01-01T00:00:00+00:00</time>
        <ele>309.0</ele>
      </trkpt>
      <trkpt lat="47.636135" lon="7.203858">
        <time>1970-01-01T00:00:00+00:00</time>
        <ele>307.0</ele>
      </trkpt>
      <trkpt lat="47.636166" lon="7.203601">
        <time>1970-01-01T00:00:00+00:00</time>
        <ele>306.0</ele>
      </trkpt>
      <trkpt lat="47.636216" lon="7.20346">
        <time>1970-01-01T00:00:00+00:00</time>
        <ele>306.0</ele>
      </trkpt>
      <trkpt lat="47.636257" lon="7.203402">
        <time>1970-01-01T00:00:00+00:00</time>
        <ele>306.0</ele>
      </trkpt>
      <trkpt lat="47.636453" lon="7.203373">
        <time>1970-01-01T00:00:00+00:00</time>
        <ele>305.0</ele>
      </trkpt>
      <trkpt lat="47.637022" lon="7.203222">
        <time>1970-01-01T00:00:00+00:00</time>
        <ele>305.0</ele>
      </trkpt>
      <trkpt lat="47.638354" lon="7.202577">
        <time>1970-01-01T00:00:00+00:00</time>
        <ele>316.0</ele>
      </trkpt>
      <trkpt lat="47.638438" lon="7.202473">
        <time>1970-01-01T00:00:00+00:00</time>
        <ele>316.0</ele>
      </trkpt>
      <trkpt lat="47.638491" lon="7.202408">
        <time>1970-01-01T00:00:00+00:00</time>
        <ele>316.0</ele>
      </trkpt>
      <trkpt lat="47.638539" lon="7.202141">
        <time>1970-01-01T00:00:00+00:00</time>
        <ele>317.0</ele>
      </trkpt>
      <trkpt lat="47.638625" lon="7.20147">
        <time>1970-01-01T00:00:00+00:00</time>
        <ele>318.0</ele>
      </trkpt>
      <trkpt lat="47.638884" lon="7.200354">
        <time>1970-01-01T00:00:00+00:00</time>
        <ele>320.0</ele>
      </trkpt>
      <trkpt lat="47.639128" lon="7.199944">
        <time>1970-01-01T00:00:00+00:00</time>
        <ele>321.0</ele>
      </trkpt>
      <trkpt lat="47.639604" lon="7.199467">
        <time>1970-01-01T00:00:00+00:00</time>
        <ele>324.0</ele>
      </trkpt>
      <trkpt lat="47.639817" lon="7.199214">
        <time>1970-01-01T00:00:00+00:00</time>
        <ele>327.0</ele>
      </trkpt>
      <trkpt lat="47.639919" lon="7.199172">
        <time>1970-01-01T00:00:00+00:00</time>
        <ele>328.0</ele>
      </trkpt>
      <trkpt lat="47.640048" lon="7.199242">
        <time>1970-01-01T00:00:00+00:00</time>
        <ele>330.0</ele>
      </trkpt>
      <trkpt lat="47.641842" lon="7.200616">
        <time>1970-01-01T00:00:00+00:00</time>
        <ele>343.0</ele>
      </trkpt>
      <trkpt lat="47.64195" lon="7.200656">
        <time>1970-01-01T00:00:00+00:00</time>
        <ele>344.0</ele>
      </trkpt>
      <trkpt lat="47.641516" lon="7.198778">
        <time>1970-01-01T00:00:00+00:00</time>
        <ele>346.0</ele>
      </trkpt>
      <trkpt lat="47.641063" lon="7.196562">
        <time>1970-01-01T00:00:00+00:00</time>
        <ele>348.0</ele>
      </trkpt>
      <trkpt lat="47.640915" lon="7.19568">
        <time>1970-01-01T00:00:00+00:00</time>
        <ele>349.0</ele>
      </trkpt>
      <trkpt lat="47.640915" lon="7.19568">
        <time>1970-01-01T00:00:00+00:00</time>
        <ele>349.0</ele>
      </trkpt>
      <trkpt lat="47.641063" lon="7.196562">
        <time>1970-01-01T00:00:00+00:00</time>
        <ele>348.0</ele>
      </trkpt>
      <trkpt lat="47.641516" lon="7.198778">
        <time>1970-01-01T00:00:00+00:00</time>
        <ele>346.0</ele>
      </trkpt>
      <trkpt lat="47.64195" lon="7.200656">
        <time>1970-01-01T00:00:00+00:00</time>
        <ele>344.0</ele>
      </trkpt>
      <trkpt lat="47.641842" lon="7.200616">
        <time>1970-01-01T00:00:00+00:00</time>
        <ele>343.0</ele>
      </trkpt>
      <trkpt lat="47.640048" lon="7.199242">
        <time>1970-01-01T00:00:00+00:00</time>
        <ele>330.0</ele>
      </trkpt>
      <trkpt lat="47.639919" lon="7.199172">
        <time>1970-01-01T00:00:00+00:00</time>
        <ele>328.0</ele>
      </trkpt>
      <trkpt lat="47.639817" lon="7.199214">
        <time>1970-01-01T00:00:00+00:00</time>
        <ele>327.0</ele>
      </trkpt>
      <trkpt lat="47.639604" lon="7.199467">
        <time>1970-01-01T00:00:00+00:00</time>
        <ele>324.0</ele>
      </trkpt>
      <trkpt lat="47.639128" lon="7.199944">
        <time>1970-01-01T00:00:00+00:00</time>
        <ele>321.0</ele>
      </trkpt>
      <trkpt lat="47.638884" lon="7.200354">
        <time>1970-01-01T00:00:00+00:00</time>
        <ele>320.0</ele>
      </trkpt>
      <trkpt lat="47.638625" lon="7.20147">
        <time>1970-01-01T00:00:00+00:00</time>
        <ele>318.0</ele>
      </trkpt>
      <trkpt lat="47.638539" lon="7.202141">
        <time>1970-01-01T00:00:00+00:00</time>
        <ele>317.0</ele>
      </trkpt>
      <trkpt lat="47.638491" lon="7.202408">
        <time>1970-01-01T00:00:00+00:00</time>
        <ele>316.0</ele>
      </trkpt>
      <trkpt lat="47.638438" lon="7.202473">
        <time>1970-01-01T00:00:00+00:00</time>
        <ele>316.0</ele>
      </trkpt>
      <trkpt lat="47.638354" lon="7.202577">
        <time>1970-01-01T00:00:00+00:00</time>
        <ele>316.0</ele>
      </trkpt>
      <trkpt lat="47.637022" lon="7.203222">
        <time>1970-01-01T00:00:00+00:00</time>
        <ele>305.0</ele>
      </trkpt>
      <trkpt lat="47.636453" lon="7.203373">
        <time>1970-01-01T00:00:00+00:00</time>
        <ele>305.0</ele>
      </trkpt>
      <trkpt lat="47.636257" lon="7.203402">
        <time>1970-01-01T00:00:00+00:00</time>
        <ele>306.0</ele>
      </trkpt>
      <trkpt lat="47.636216" lon="7.20346">
        <time>1970-01-01T00:00:00+00:00</time>
        <ele>306.0</ele>
      </trkpt>
      <trkpt lat="47.636166" lon="7.203601">
        <time>1970-01-01T00:00:00+00:00</time>
        <ele>306.0</ele>
      </trkpt>
      <trkpt lat="47.636135" lon="7.203858">
        <time>1970-01-01T00:00:00+00:00</time>
        <ele>307.0</ele>
      </trkpt>
      <trkpt lat="47.63611" lon="7.204257">
        <time>1970-01-01T00:00:00+00:00</time>
        <ele>309.0</ele>
      </trkpt>
      <trkpt lat="47.636076" lon="7.204428">
        <time>1970-01-01T00:00:00+00:00</time>
        <ele>309.0</ele>
      </trkpt>
      <trkpt lat="47.636004" lon="7.204536">
        <time>1970-01-01T00:00:00+00:00</time>
        <ele>310.0</ele>
      </trkpt>
      <trkpt lat="47.635807" lon="7.204608">
        <time>1970-01-01T00:00:00+00:00</time>
        <ele>313.0</ele>
      </trkpt>
      <trkpt lat="47.635426" lon="7.204592">
        <time>1970-01-01T00:00:00+00:00</time>
        <ele>316.0</ele>
      </trkpt>
      <trkpt lat="47.635146" lon="7.204639">
        <time>1970-01-01T00:00:00+00:00</time>
        <ele>319.0</ele>
      </trkpt>
      <trkpt lat="47.634888" lon="7.204793">
        <time>1970-01-01T00:00:00+00:00</time>
        <ele>322.0</ele>
      </trkpt>
      <trkpt lat="47.634585" lon="7.205035">
        <time>1970-01-01T00:00:00+00:00</time>
        <ele>325.0</ele>
      </trkpt>
      <trkpt lat="47.634053" lon="7.205331">
        <time>1970-01-01T00:00:00+00:00</time>
        <ele>328.0</ele>
      </trkpt>
      <trkpt lat="47.633444" lon="7.205658">
        <time>1970-01-01T00:00:00+00:00</time>
        <ele>322.0</ele>
      </trkpt>
      <trkpt lat="47.632768" lon="7.206197">
        <time>1970-01-01T00:00:00+00:00</time>
        <ele>320.0</ele>
      </trkpt>
      <trkpt lat="47.632086" lon="7.206763">
        <time>1970-01-01T00:00:00+00:00</time>
        <ele>326.0</ele>
      </trkpt>
      <trkpt lat="47.631877" lon="7.20691">
        <time>1970-01-01T00:00:00+00:00</time>
        <ele>327.0</ele>
      </trkpt>
      <trkpt lat="47.631488" lon="7.20709">
        <time>1970-01-01T00:00:00+00:00</time>
        <ele>328.0</ele>
      </trkpt>
      <trkpt lat="47.63101" lon="7.207217">
        <time>1970-01-01T00:00:00+00:00</time>
        <ele>325.0</ele>
      </trkpt>
      <trkpt lat="47.630188" lon="7.207283">
        <time>1970-01-01T00:00:00+00:00</time>
        <ele>319.0</ele>
      </trkpt>
      <trkpt lat="47.62933" lon="7.207409">
        <time>1970-01-01T00:00:00+00:00</time>
        <ele>317.0</ele>
      </trkpt>
      <trkpt lat="47.629471" lon="7.201102">
        <time>1970-01-01T00:00:00+00:00</time>
        <ele>323.0</ele>
      </trkpt>
      <trkpt lat="47.629682" lon="7.201104">
        <time>1970-01-01T00:00:00+00:00</time>
        <ele>323.0</ele>
      </trkpt>
      <trkpt lat="47.629767" lon="7.20122">
        <time>1970-01-01T00:00:00+00:00</time>
        <ele>322.0</ele>
      </trkpt>
      <trkpt lat="47.629772" lon="7.201393">
        <time>1970-01-01T00:00:00+00:00</time>
        <ele>322.0</ele>
      </trkpt>
    </trkseg>
  </trk>
</gpx>
